User: anonymous   Login
Location: Klein M�hlingen
(51.9472°N, 11.7453°E)
Time: 05:42:09
(UTC+00:00)
Language:

Nauka - Orbit

View from above orbital plane
View from above orbital plane
View from above satellite
View from above satellite

Ground track
Ground track

The orbit data is extracted from the following two-line orbital elements,

1 49044U 21066A   21299.54274242  .00002495  00000-0  53809-4 0  9998
2 49044  51.6438  53.2173 0003869 142.7654 322.6919 15.48793144308959
Epoch (UTC): 26 October 2021 13:01:32
Eccentricity: 0.0003869
inclination: 51.6438°
perigee height: 417 km
apogee height: 423 km
right ascension of ascending node: 53.2173°
argument of perigee: 142.7654°
revolutions per day: 15.48793144
mean anomaly at epoch: 322.6919°
orbit number at epoch: 30895

The dashed part of the orbit path shows where the satellite is in the earth's shadow,  

DLR